Location: Bothwell
(42.3833°S, 147.0000°E)
Time: 00:33:55
(UTC+11:00)

BEESAT 2 - Visible Passes

Search period start: 05 December 2023 00:00
Search period end: 15 December 2023 00:00
Orbit: 357 x 382 km, 64.9° (Epoch: 03 December)

Date Brightness Start Highest point End Pass type
(mag) Time Alt. Az. Time Alt. Az. Time Alt. Az.
05 Dec ? 02:32:04 10° S 02:34:33 22° SE 02:36:46 11° E visible
05 Dec ? 04:06:37 10° WSW 04:08:36 19° WNW 04:08:36 19° WNW visible
06 Dec ? 03:03:38 10° SW 03:06:17 64° SW 03:06:17 64° SW visible
07 Dec ? 02:01:19 10° S 02:03:54 25° SE 02:04:08 24° ESE visible
08 Dec ? 02:32:23 10° SW 02:33:48 24° SW 02:33:48 24° SW visible
09 Dec ? 01:29:27 10° S 01:31:31 25° SSE 01:31:31 25° SSE visible
10 Dec ? 01:59:58 10° SW 02:00:55 18° SW 02:00:55 18° SW visible
11 Dec ? 00:56:26 10° SSW 00:58:18 24° SSE 00:58:18 24° SSE visible
11 Dec ? 23:54:22 10° SE 23:54:43 10° SE 23:55:04 10° SE visible
12 Dec ? 01:26:25 10° SW 01:27:18 17° SW 01:27:18 17° SW visible
13 Dec ? 00:22:18 10° SSW 00:24:17 26° SSE 00:24:17 26° SSE visible
13 Dec ? 23:19:33 10° SSE 23:20:03 10° SE 23:20:32 10° SE visible
14 Dec ? 00:51:42 10° SW 00:52:50 20° SW 00:52:50 20° SW visible
14 Dec ? 23:47:01 10° SSW 23:49:22 28° SE 23:49:22 28° SE visible
